Overview Statistics Trail Chart Weather Telemetry Raw packets
 

This is the latest recevied weather packets stored in our database for station/object NR6G-12. If no packets are shown the sender has not sent any weather packets the latest 10 day(s).

<< 89 90 91 92 93 94 >>
Time Temp. Humidity Pressure Rain* Wind** Luminosity Snow
1787852293 25° C 39% 1021.7 hPa 0 mm - - -
1787851933 25° C 40% 1021.6 hPa 0 mm - - -
1787851573 25.56° C 40% 1021.5 hPa 0 mm - - -
1787851213 25° C 41% 1021.4 hPa 0 mm - - -
1787850853 24.44° C 37% 1021.3 hPa 0 mm - - -
1787850493 24.44° C 39% 1021.1 hPa 0 mm - - -
1787850133 23.89° C 40% 1021.1 hPa 0 mm - - -
1787849773 24.44° C 41% 1021 hPa 0 mm - - -
1787849413 24.44° C 37% 1020.9 hPa 0 mm - - -
1787849053 24.44° C 41% 1020.8 hPa 0 mm - - -
1787848693 24.44° C 41% 1020.7 hPa 0 mm - - -
1787848333 24.44° C 41% 1020.7 hPa 0 mm - - -
1787847973 25° C 39% 1020.7 hPa 0 mm - - -
1787847613 26.11° C 38% 1020.6 hPa 0 mm - - -
1787847253 26.67° C 36% 1020.6 hPa 0 mm - - -
1787846893 27.22° C 33% 1020.6 hPa 0 mm - - -
1787846533 27.22° C 32% 1020.8 hPa 0 mm - - -
1787846173 27.22° C 31% 1020.7 hPa 0 mm - - -
1787845813 27.22° C 30% 1020.7 hPa 0 mm - - -
1787845453 27.22° C 30% 1020.7 hPa 0 mm - - -
1787845093 27.22° C 31% 1020.7 hPa 0 mm - - -
1787844733 26.67° C 30% 1020.8 hPa 0 mm - - -
1787844373 26.11° C 31% 1020.7 hPa 0 mm - - -
1787842933 25° C 34% 1020.7 hPa 0 mm - - -
1787842573 25.56° C 34% 1020.7 hPa 0 mm - - -

* Rain latest hour (hover to see other rain measurements)
** Current wind speed in m/s (hover to see current wind gust speed)